• In Hungary
  • List of Countries
  • For 7 days
  • Water Temperature
  • Satellite Maps
  • Weather Map
  • News
  • Weather Widgets
  • user-avatar
    Login

    Hourly Weather Kasama

    Today, 22 September, Saturday

    Time Temperature Precipitation Wind Pressure Humidity
    00:00 +25°C° 2.3 mm 2 mps 721 mmHg 89%
    01:00 +25°C° 2.3 mm 2 mps 721 mmHg 90%
    02:00 +24°C° 0 mm 1 mps 721 mmHg 92%
    03:00 +24°C° 0.1 mm 1 mps 720 mmHg 92%
    04:00 +24°C° 0.1 mm 1 mps 720 mmHg 91%
    05:00 +24°C° 0.1 mm 1 mps 720 mmHg 91%
    06:00 +25°C° 0 mm 1 mps 720 mmHg 86%
    07:00 +27°C° 0 mm 2 mps 721 mmHg 82%
    08:00 +28°C° 0 mm 2 mps 721 mmHg 77%
    09:00 +31°C° 0 mm 2 mps 721 mmHg 66%
    10:00 +34°C° 0 mm 3 mps 722 mmHg 54%
    11:00 +37°C° 0 mm 3 mps 722 mmHg 43%
    12:00 +38°C° 0 mm 2 mps 721 mmHg 40%
    13:00 +39°C° 0 mm 2 mps 720 mmHg 37%
    14:00 +39°C° 0 mm 2 mps 720 mmHg 34%
    15:00 +37°C° 0 mm 1 mps 719 mmHg 39%
    16:00 +35°C° 0 mm 1 mps 719 mmHg 44%
    17:00 +34°C° 0 mm 1 mps 719 mmHg 49%
    18:00 +33°C° 0.2 mm 1 mps 719 mmHg 51%
    19:00 +31°C° 0.2 mm 1 mps 719 mmHg 54%
    20:00 +30°C° 0.2 mm 1 mps 720 mmHg 56%
    21:00 +30°C° 0.1 mm 1 mps 720 mmHg 60%
    22:00 +29°C° 0.1 mm 1 mps 720 mmHg 63%
    23:00 +28°C° 0.1 mm 1 mps 720 mmHg 67%

    Tomorrow, 23 September, Sunday

    Time Temperature Precipitation Wind Pressure Humidity
    00:00 +27°C° 0.3 mm 1 mps 720 mmHg 70%
    01:00 +27°C° 0.3 mm 1 mps 720 mmHg 73%
    02:00 +26°C° 0.3 mm 1 mps 720 mmHg 76%
    03:00 +26°C° 0 mm 1 mps 720 mmHg 76%
    04:00 +26°C° 0 mm 1 mps 720 mmHg 77%
    05:00 +24°C° 0 mm 0 mps 720 mmHg 77%
    06:00 +25°C° 0 mm 0 mps 720 mmHg 72%
    07:00 +27°C° 0 mm 0 mps 721 mmHg 67%
    08:00 +29°C° 0 mm 0 mps 722 mmHg 62%
    09:00 +33°C° 0 mm 1 mps 722 mmHg 55%
    10:00 +35°C° 0 mm 1 mps 722 mmHg 47%
    11:00 +38°C° 0 mm 2 mps 722 mmHg 40%
    12:00 +39°C° 0 mm 2 mps 721 mmHg 37%
    13:00 +40°C° 0 mm 1 mps 721 mmHg 34%
    14:00 +41°C° 0 mm 1 mps 720 mmHg 31%
    15:00 +39°C° 0 mm 1 mps 719 mmHg 34%
    16:00 +37°C° 0 mm 1 mps 719 mmHg 38%
    17:00 +33°C° 0 mm 0 mps 719 mmHg 42%
    18:00 +32°C° 0 mm 0 mps 719 mmHg 44%
    19:00 +31°C° 0 mm 0 mps 719 mmHg 45%
    20:00 +30°C° 0 mm 0 mps 720 mmHg 46%
    21:00 +29°C° 0 mm 0 mps 720 mmHg 48%
    22:00 +28°C° 0 mm 0 mps 720 mmHg 50%
    23:00 +28°C° 0 mm 0 mps 720 mmHg 51%

    Day after tomorrow, 24 September, Monday

    Time Temperature Precipitation Wind Pressure Humidity
    00:00 +27°C° 0 mm 0 mps 720 mmHg 53%
    01:00 +27°C° 0 mm 0 mps 719 mmHg 54%
    02:00 +28°C° 0 mm 1 mps 719 mmHg 56%
    03:00 +28°C° 0 mm 1 mps 719 mmHg 57%
    04:00 +28°C° 0 mm 1 mps 719 mmHg 59%
    05:00 +27°C° 0 mm 1 mps 719 mmHg 61%
    06:00 +29°C° 0 mm 1 mps 719 mmHg 59%
    07:00 +30°C° 0 mm 1 mps 720 mmHg 57%
    08:00 +31°C° 0 mm 1 mps 721 mmHg 54%
    09:00 +35°C° 0 mm 2 mps 721 mmHg 48%
    10:00 +37°C° 0 mm 2 mps 721 mmHg 42%
    11:00 +39°C° 0 mm 2 mps 721 mmHg 37%
    12:00 +40°C° 0 mm 1 mps 720 mmHg 34%
    13:00 +41°C° 0 mm 1 mps 720 mmHg 32%
    14:00 +42°C° 0 mm 1 mps 719 mmHg 29%
    15:00 +40°C° 0 mm 1 mps 719 mmHg 34%
    16:00 +37°C° 0 mm 1 mps 718 mmHg 38%
    17:00 +33°C° 0 mm 0 mps 718 mmHg 43%
    18:00 +34°C° 0.1 mm 1 mps 719 mmHg 46%
    19:00 +33°C° 0.1 mm 1 mps 719 mmHg 49%
    20:00 +31°C° 0.1 mm 1 mps 719 mmHg 52%
    21:00 +30°C° 0.5 mm 1 mps 719 mmHg 57%
    22:00 +29°C° 0.5 mm 1 mps 719 mmHg 63%
    23:00 +28°C° 0.5 mm 1 mps 719 mmHg 69%

    25 September, Tuesday

    Time Temperature Precipitation Wind Pressure Humidity
    00:00 +27°C° 0.1 mm 1 mps 719 mmHg 71%
    01:00 +27°C° 0.1 mm 1 mps 718 mmHg 72%
    02:00 +27°C° 0.1 mm 1 mps 718 mmHg 74%
    03:00 +27°C° 0 mm 1 mps 718 mmHg 72%
    04:00 +27°C° 0 mm 1 mps 718 mmHg 70%
    05:00 +25°C° 0 mm 0 mps 719 mmHg 68%
    06:00 +29°C° 0 mm 1 mps 719 mmHg 65%
    07:00 +30°C° 0 mm 1 mps 720 mmHg 62%
    08:00 +31°C° 0 mm 2 mps 721 mmHg 58%
    09:00 +35°C° 0 mm 2 mps 721 mmHg 50%
    10:00 +37°C° 0 mm 3 mps 721 mmHg 42%
    11:00 +39°C° 0 mm 3 mps 721 mmHg 34%
    12:00 +40°C° 0 mm 3 mps 720 mmHg 32%
    13:00 +41°C° 0 mm 2 mps 719 mmHg 29%
    14:00 +41°C° 0 mm 2 mps 718 mmHg 26%
    15:00 +40°C° 0 mm 2 mps 718 mmHg 30%
    16:00 +37°C° 0 mm 1 mps 718 mmHg 35%
    17:00 +35°C° 0 mm 1 mps 718 mmHg 39%
    18:00 +34°C° 2.2 mm 2 mps 718 mmHg 50%
    19:00 +30°C° 2.2 mm 3 mps 718 mmHg 60%
    20:00 +28°C° 2.2 mm 4 mps 718 mmHg 71%
    21:00 +27°C° 0.9 mm 4 mps 719 mmHg 73%
    22:00 +27°C° 0.9 mm 3 mps 719 mmHg 75%
    23:00 +26°C° 0.9 mm 2 mps 720 mmHg 77%

    26 September, Wednesday

    Time Temperature Precipitation Wind Pressure Humidity
    00:00 +26°C° 0.7 mm 2 mps 719 mmHg 79%
    01:00 +25°C° 0.7 mm 2 mps 719 mmHg 81%
    02:00 +25°C° 0.7 mm 2 mps 719 mmHg 83%
    03:00 +25°C° 0.4 mm 2 mps 719 mmHg 84%
    04:00 +24°C° 0.4 mm 2 mps 720 mmHg 85%
    05:00 +24°C° 0.4 mm 2 mps 720 mmHg 87%
    06:00 +25°C° 0 mm 2 mps 721 mmHg 83%
    07:00 +26°C° 0 mm 1 mps 721 mmHg 79%
    08:00 +28°C° 0 mm 1 mps 722 mmHg 75%
    09:00 +30°C° 0 mm 2 mps 722 mmHg 64%
    10:00 +34°C° 0 mm 2 mps 722 mmHg 54%
    11:00 +36°C° 0 mm 2 mps 721 mmHg 44%
    12:00 +37°C° 0 mm 2 mps 721 mmHg 41%
    13:00 +37°C° 0 mm 2 mps 720 mmHg 39%
    14:00 +38°C° 0 mm 2 mps 719 mmHg 37%
    15:00 +37°C° 0 mm 2 mps 719 mmHg 40%
    16:00 +35°C° 0 mm 1 mps 719 mmHg 44%
    17:00 +34°C° 0 mm 1 mps 719 mmHg 48%
    18:00 +33°C° 0.1 mm 1 mps 719 mmHg 51%
    19:00 +31°C° 0.1 mm 1 mps 719 mmHg 54%
    20:00 +30°C° 0.1 mm 1 mps 720 mmHg 57%
    21:00 +29°C° 0.1 mm 1 mps 720 mmHg 59%
    22:00 +29°C° 0.1 mm 1 mps 720 mmHg 61%
    23:00 +28°C° 0.1 mm 1 mps 720 mmHg 63%

    27 September, Thursday

    Time Temperature Precipitation Wind Pressure Humidity
    00:00 +28°C° 0.6 mm 1 mps 720 mmHg 66%
    01:00 +27°C° 0.6 mm 1 mps 719 mmHg 69%
    02:00 +27°C° 0.6 mm 1 mps 719 mmHg 72%
    03:00 +26°C° 0.4 mm 1 mps 719 mmHg 74%
    04:00 +26°C° 0.4 mm 1 mps 719 mmHg 77%
    05:00 +26°C° 0.4 mm 1 mps 720 mmHg 79%
    06:00 +27°C° 0 mm 1 mps 720 mmHg 75%
    07:00 +27°C° 0 mm 0 mps 721 mmHg 71%
    08:00 +28°C° 0 mm 0 mps 721 mmHg 66%
    09:00 +33°C° 0 mm 1 mps 721 mmHg 57%
    10:00 +35°C° 0 mm 1 mps 721 mmHg 48%
    11:00 +39°C° 0 mm 2 mps 721 mmHg 38%
    12:00 +39°C° 0 mm 1 mps 720 mmHg 36%
    13:00 +40°C° 0 mm 1 mps 719 mmHg 33%
    14:00 +41°C° 0 mm 1 mps 719 mmHg 31%
    15:00 +40°C° 0 mm 1 mps 719 mmHg 35%
    16:00 +35°C° 0 mm 0 mps 719 mmHg 38%
    17:00 +34°C° 0 mm 0 mps 719 mmHg 42%
    18:00 +32°C° 0 mm 0 mps 719 mmHg 44%
    19:00 +31°C° 0 mm 0 mps 719 mmHg 46%
    20:00 +29°C° 0 mm 0 mps 720 mmHg 48%
    21:00 +31°C° 0 mm 1 mps 720 mmHg 49%
    22:00 +31°C° 0 mm 1 mps 719 mmHg 50%
    23:00 +30°C° 0 mm 1 mps 719 mmHg 51%
    Show more